This demonstration page uses our WeatherBlox Daily Observations layout. Learn more.

Left ArrowRight Arrow

Hourly Observations for March 23, 2023

Temp ( °F °C ) Dew Point ( °F °C ) Humidity (%) Winds ( mph kmh ) Pressure ( in mb ) Visibility ( mi km ) Precip ( " mm )
12:53 am 00:53 Mostly Cloudy with Mist and Fog 65 18.3 64 17.8 97 97 SSE 7 11 30.12 1020 5 8 0.00 0.00
1:53 am 01:53 Cloudy 68 20 65 18.3 90 90 S 10 17 30.12 1020 9 14 0.00 0.00
2:53 am 02:53 Cloudy 68 20 65 18.3 90 90 SSE 9 15 30.11 1020 9 14 0.00 0.00
3:04 am 03:04 Cloudy 67 19.4 65 18.3 93 93 SSE 10 17 30.09 1019 8 13 0.00 0.00
3:14 am 03:14 Cloudy 67 19.4 65 18.3 93 93 SSE 8 13 30.09 1019 8 13 0.00 0.00
3:24 am 03:24 Cloudy 67 19.4 65 18.3 93 93 SSE 9 15 30.09 1019 8 13 0.00 0.00
3:53 am 03:53 Cloudy 67 19.4 65 18.3 93 93 SE 9 15 30.09 1019 8 13 0.00 0.00
4:53 am 04:53 Cloudy 67 19.4 65 18.3 93 93 SSE 8 13 30.08 1019 9 14 0.00 0.00
5:04 am 05:04 Cloudy 67 19.4 65 18.3 93 93 SSE 8 13 30.07 1018 9 14 0.00 0.00
5:53 am 05:53 Cloudy 68 20 65 18.3 90 90 S 9 15 30.09 1019 9 14 0.00 0.00
6:53 am 06:53 Cloudy 68 20 65 18.3 90 90 SSE 7 11 30.09 1019 8 13 0.00 0.00
7:53 am 07:53 Cloudy with Mist and Fog 68 20 66 18.9 93 93 SSE 7 11 30.10 1019 6 10 0.00 0.00
8:53 am 08:53 Cloudy with Mist and Fog 68 20 66 18.9 93 93 SSE 8 13 30.12 1020 5 8 0.00 0.00
8:57 am 08:57 Cloudy with Mist and Fog 68 20 66 18.9 93 93 SSE 9 15 30.11 1020 5 8 0.00 0.00
9:08 am 09:08 Cloudy with Mist and Fog 68 20 66 18.9 93 93 SSE 9 15 30.11 1020 6 10 0.00 0.00
9:46 am 09:46 Cloudy 70 21.1 67 19.4 90 90 SSE 10 17 30.12 1020 9 14 0.00 0.00
9:53 am 09:53 Cloudy 70 21.1 66 18.9 87 87 SSE 10 17 30.12 1020 9 14 0.00 0.00
10:21 am 10:21 Cloudy 72 22.2 67 19.4 84 84 S 10 17 30.12 1020 10 16 0.00 0.00
10:53 am 10:53 Cloudy 73 22.8 67 19.4 81 81 S 10 17 30.13 1020 10 16 0.00 0.00
11:53 am 11:53 Cloudy 75 23.9 66 18.9 74 74 S 13 20 30.13 1020 10 16 0.00 0.00
12:30 pm 12:30 Cloudy 75 23.9 66 18.9 74 74 S 15 24 30.12 1020 10 16 0.00 0.00
12:38 pm 12:38 Cloudy 76 24.4 67 19.4 74 74 S 15 24 30.11 1020 10 16 0.00 0.00
12:53 pm 12:53 Cloudy 76 24.4 67 19.4 74 74 S 14 22 30.12 1020 10 16 0.00 0.00
1:21 pm 13:21 Mostly Cloudy 77 25 67 19.4 71 71 S 15 24 30.10 1019 10 16 0.00 0.00
1:53 pm 13:53 Mostly Cloudy 77 25 67 19.4 71 71 S 14 22 30.09 1019 10 16 0.00 0.00
2:53 pm 14:53 Mostly Cloudy 80 26.7 68 20 67 67 S 18 30 30.05 1018 10 16 0.00 0.00
3:53 pm 15:53 Partly Cloudy 82 27.8 67 19.4 60 60 S 17 28 30.02 1017 10 16 0.00 0.00
4:53 pm 16:53 Partly Cloudy 80 26.7 66 18.9 62 62 S 15 24 30.00 1016 10 16 0.00 0.00
5:04 pm 17:04 Partly Cloudy 81 27.2 65 18.3 58 58 S 18 30 29.99 1015 10 16 0.00 0.00
5:53 pm 17:53 Sunny 80 26.7 65 18.3 60 60 S 17 28 29.99 1016 10 16 0.00 0.00
6:53 pm 18:53 Sunny 78 25.6 64 17.8 62 62 S 15 24 29.99 1016 8 13 0.00 0.00
7:53 pm 19:53 Clear 74 23.3 66 18.9 76 76 S 13 20 29.98 1015 9 14 0.00 0.00
8:53 pm 20:53 Mostly Clear 72 22.2 66 18.9 82 82 SSE 8 13 29.98 1015 10 16 0.00 0.00
9:53 pm 21:53 Partly Cloudy 73 22.8 67 19.4 81 81 S 15 24 29.98 1015 9 14 0.00 0.00
10:42 pm 22:42 Cloudy 72 22.2 68 20 87 87 SSE 9 15 29.97 1015 7 11 0.00 0.00
10:53 pm 22:53 Cloudy with Mist and Fog 72 22.2 68 20 87 87 SSE 10 17 29.97 1015 6 10 0.00 0.00
11:09 pm 23:09 Cloudy 72 22.2 68 20 87 87 S 12 19 29.96 1014 7 11 0.00 0.00
11:25 pm 23:25 Cloudy 72 22.2 68 20 87 87 S 13 20 29.96 1014 8 13 0.00 0.00
11:53 pm 23:53 Cloudy 73 22.8 67 19.4 81 81 S 18 30 29.95 1014 9 14 0.00 0.00

Powered by Vaisala Xweather